STARLINK-32880, 62955

Orbit data source: Space-Track

STARLINK-32880, 62955 is a payload satellite owned by SpaceX/Seattle (US) in LEO that was launched on Tue, 11 Feb 2025 UTC via an FALCON 9 launch vehicle from the Air Force Western Test Range (AFWTR). Payload-class satellites include a variety of spacecraft equipped with specific instruments for various scientific and technological missions. These include communications satellites like Starlink; space stations such as the ISS; scientific satellites like the Hubble; Earth observation satellites from companies like Planet Labs, Umbra, and HawkEye 360; GPS; miniature CubeSats for education and research; and military/defense satellites.

Loading next visibility...
Identifier
62955, 2025-029H
Orbit
LEO
Country
Flag of USUS
Related business
Manufacturer
SpaceX/Seattle
Mission
Operational Commercial Communications
Bus & Motor
STARLINK V2M, Unknown motor
Mass
730 kg wet, ~700 kg dry
Launch date (UTC)
2025-02-11 (1 year ago)
Launch vehicle
FALCON 9
Launch site
Air Force Western Test Range (AFWTR)
Object type
Payload
Rocket body
Debris
Shape & HBR
Box + 2 Pan, 17.7 m
Radar Cross Section
33.884 m², Large (>1 m²)

Expand to show TLE details & history
Last TLE update: 1 day ago

TLE from 1 day ago
0 STARLINK-32880
1 62955U 25029H   26170.55997411  .00012768  00000-0  42261-3 0  9994
2 62955  53.1579 118.6228 0001084 104.9020 255.2101 15.31692523 76934
Epoch: 2026-06-19T13:26Z
TLE epoch observation values (Epoch: 2026-06-19T13:26:21.763Z)
Latitude
-0.00004°
Longitude
9.24489°
Altitude
471.852 km
Speed
7.631 km/s
True Right ascension
07h 54m 29s
True Declination
0° 00' 00"
Sunlit
Object was in daylight at epoch
Visualization orbit readout
Latitude
Unknown
Longitude
Unknown
Altitude
Unknown
Speed
Unknown
Apparent Right ascension
Unknown
Apparent Declination
Unknown
Sunlit
N/A
Visualization observer readout
Local Sidereal Time
07:16:26
Azimuth
Unknown
Elevation
Unknown
Doppler factor
Unknown
Orbital elements
Apogee altitude
471.762 km
Perigee altitude
470.277 km
Semi-major axis
6,849.156 km
Eccentricity
0.00011
Inclination
53.1579°
RAAN
118.6228°
Arg. of periapsis
104.902°
True anomaly
255.19809°
Mean anomaly
255.2101°
Eccentric anomaly
255.2041°
Mean motion
3.82902 °/min
Orbital period
94.02 mins
BSTAR
0.00042261
Loading maneuver chart data...
Computing Atmospheric mass density...
Loading historical data...
Loading historical data...
Loading historical data...
Loading historical data...
Loading historical data...
Loading historical data...
Loading historical data...

Documentation

Showing up to 5 results
|